Regional Weather Roundup
Issued by NWS

Home | Current Version | Previous Version | Text Only | Print | Product List | Glossary Off
Versions: 1 2 3 4 5 6 7 8 9 10 11 12 13 14 15 16 17 18 19 20 21 22 23 24 25 26 27 28 29 30 31 32 33 34 35 36 37 38 39 40 41 42 43 44 45 46 47 48 49 50

000
ASUS45 KBOU 202007
RWRCO

WEATHER ROUNDUP FOR COLORADO
NATIONAL WEATHER SERVICE DENVER/BOULDER CO
100 PM MST SAT DEC 20 2014

NOTE: "FAIR" INDICATES FEW OR NO CLOUDS BELOW 12000 FEET WITH NO
SIGNIFICANT WEATHER AND/OR OBSTRUCTIONS TO VISIBILITY.

COZ001>005-013-030-031-202100-
...NORTHWEST COLORADO...

CITY           SKY/WX    TMP DP  RH WIND       PRES   REMARKS
CRAIG          CLOUDY    32  25  75 E8        30.08F WCI  25
HAYDEN         CLOUDY    27  21  80 NE5       30.07F WCI  21
MEEKER         CLOUDY    34  24  67 CALM      30.08F
MOUNT WERNER   NOT AVBL
STEAMBOAT SPGS CLOUDY    26  21  83 CALM      30.07F
WALDEN         CLOUDY    30  21  69 S10       30.03S WCI  21
$$

COZ006>008-011-202100-
...WEST CENTRAL VALLEYS...

CITY           SKY/WX    TMP DP  RH WIND       PRES   REMARKS
GRAND JUNCTION MOSUNNY   38  23  55 N3        30.14F
MONTROSE       SUNNY     38  21  50 CALM      30.11F
EAGLE          CLOUDY    27  19  74 CALM      30.12F
RIFLE          CLOUDY    33  22  63 NE3       30.12F
DELTA          CLOUDY    40  24  53 CALM      30.12F
NUCLA          SUNNY     37  27  65 CALM      30.15F
$$

COZ017>023-064>068-202100-
...SOUTHWEST COLORADO...

CITY           SKY/WX    TMP DP  RH WIND       PRES   REMARKS
DURANGO        SUNNY     37  24  59 SW7       30.10F
CORTEZ         SUNNY     40  27  59 W6        30.13F
PAGOSA SPRINGS SUNNY     35  20  55 S6        30.09F WCI  30
TELLURIDE      MOSUNNY   34  22  61 CALM      30.10F
WOLF CREEK PAS SUNNY     25  14  63 MISG      30.09F
$$

COZ009-010-012-014-032>034-037-058>063-202100-
...CENTRAL COLORADO...

CITY           SKY/WX    TMP DP  RH WIND       PRES   REMARKS
ASPEN          PTSUNNY   32  16  51 CALM      30.06F
BUENA VISTA    PTSUNNY   42  14  32 W10G16    30.00F
COPPER MTN     SNOW      23  18  80 W13       30.05F VSB 1/4 WCI  11
BERTHOUD PASS  CLOUDY    14   9  79 MISG      30.01F
COTTONWOOD PAS PTSUNNY   34  16  47 W13G21    30.03F WCI  25
GUNNISON       CLOUDY    21  10  63 CALM      30.15F
KREMMLING      CLOUDY    28  18  64 CALM      30.10F
LEADVILLE      CLOUDY    29  17  61 NW14G22   30.02F WCI  18
SALIDA         MOSUNNY   46  17  31 SW14G29   30.07F
SUNLIGHT       FLURRIES N/A N/A N/A CALM      30.09S
WILKERSON PASS MOSUNNY   30  14  51 SW5       30.05F WCI  25
$$

COZ069>075-202100-
...SAN LUIS VALLEY/SANGRE DE CRISTO MOUNTAINS...

CITY           SKY/WX    TMP DP  RH WIND       PRES   REMARKS
ALAMOSA        SUNNY     34  14  43 CALM      30.07F
LA VETA PASS   MOSUNNY   32  14  47 SW7       30.04F WCI  26
SAGUACHE       SUNNY     34  14  44 S5        30.07F WCI  30
$$

COZ035-036-038>040-202100-
...NORTHERN COLORADO FRONT RANGE...

CITY           SKY/WX    TMP DP  RH WIND       PRES   REMARKS
DENVER INTL AP MOSUNNY   44  18  35 CALM      29.94F
DMNS CITY PARK   N/A     49  17  28 E2        29.94F
AURORA         MOSUNNY   44  20  39 S2        29.95F
FRONT RANGE AP NOT AVBL
ERIE MUNI ARPT   N/A     47  15  27 N5        29.94F
BOULDER MUN AP SUNNY     45  19  36 CALM      29.94F
CENTENNIAL     PTSUNNY   47  23  38 N8        29.95F
BROOMFIELD     PTSUNNY   45  18  33 N12       29.95F
FORT COLLINS   SUNNY     46  19  34 E8        29.96F
LONGMONT       SUNNY     53  18  25 SE5       29.95F
$$

COZ041-046-047-076>085-087-088-202100-
...PIKES PEAK/PALMER DIVIDE AND SOUTHERN FOOTHILLS...

CITY           SKY/WX    TMP DP  RH WIND       PRES   REMARKS
COLO. SPRINGS  MOSUNNY   50  13  22 CALM      29.96F
A. F. ACADEMY  MOSUNNY   50  14  24 VRB5      29.94F
ELLICOTT       NOT AVBL
FALCON         MOSUNNY   50  12  21 CALM      29.97F
FORT CARSON    MOSUNNY   50  17  26 SE5       29.95F
LIMON          MOSUNNY   51  13  21 S15       29.95F
MONUMENT HILL  PTSUNNY   45  16  31 NW3       29.95F
TRINIDAD       CLOUDY    48  16  27 SE7       29.97F
$$

COZ042>045-048>051-090-091-202100-
...NORTHEAST COLORADO...

CITY           SKY/WX    TMP DP  RH WIND       PRES   REMARKS
GREELEY ARPT   SUNNY     43  21  42 CALM      29.96F
AKRON          PTSUNNY   40  22  48 N7        29.96F
BURLINGTON     MOSUNNY   49  28  44 W6        29.96F
WRAY           PTSUNNY   42  31  64 CALM      29.97F
STERLING       PTSUNNY   32  28  86 S5        29.97F WCI  27
HOLYOKE        PTSUNNY   45  28  53 W3        29.96F
FORT MORGAN    PTSUNNY   32  24  71 W9        29.98R WCI  24
$$

COZ086-089-092>099-202100-
...SOUTHEAST COLORADO...

CITY           SKY/WX    TMP DP  RH WIND       PRES   REMARKS
PUEBLO         SUNNY     52  21  29 SE7       29.93F
LA JUNTA       PTSUNNY   41  28  60 S5        29.97F
LAMAR          PTSUNNY   44  25  47 MISG      29.97F
SPRINGFIELD      N/A     52  22  30 S6        29.97F
$$


USA.gov is the U.S. government's official web portal to all federal, state and local government web resources and services.